Location: Most
(50.5133°N, 13.6207°E)
Time: 11:22:49
(UTC+01:00)

ISS - Pass Details

Date: 22 March 2017
Orbit: 399 x 409 km, 51.6° (Epoch: 23 March)

Event Time Altitude Azimuth Distance (km) Brightness Sun altitude
Exits shadow 03:46:56 20° 139° (SE) 1,029 -1.7 -21.6°
Drops below altitude 10° 03:48:06 10° 131° (SE) 1,471 -0.8 -21.4°
Sets 03:50:13 0° 125° (SE) 2,330 0.4 -21.1°
